Hourly Data Report for September 29, 2016

TORONTO CITY
ONTARIO

43°40'00.000" N
79°24'00.000" W
112.50 m
6158355
71508
XTO

Download Data

Hourly Data (September 2016)
Hourly Data Report for September 29, 2016
TIME
LST
Temp Definition
°C
Dew Point Definition
°C
Rel Hum Definition
%
Precip. Amount Definition
mm

Wind Dir Definition
10's deg

Wind Spd Definition
km/h
Visibility Definition
km
Stn Press Definition
kPa
Hmdx Definition


Wind Chill Definition


Weather Definition


00:00 18.5 14.4 77 0.0 LegendMM LegendMM   100.81     LegendNANA
01:00 17.9 13.5 75 0.0 LegendMM LegendMM   100.86     LegendNANA
02:00 18.1 12.9 72 0.0 LegendMM LegendMM   100.87     LegendNANA
03:00 17.6 12.4 72 0.0 LegendMM LegendMM   100.87     LegendNANA
04:00 17.0 12.0 73 0.0 LegendMM LegendMM   100.95     LegendNANA
05:00 16.8 11.6 72 0.0 LegendMM LegendMM   101.00     LegendNANA
06:00 16.6 11.7 73 0.0 LegendMM LegendMM   101.05     LegendNANA
07:00 16.3 12.1 76 0.0 LegendMM LegendMM   101.14     LegendNANA
08:00 15.8 12.1 78 0.0 LegendMM LegendMM   101.19     LegendNANA
09:00 14.7 12.5 87 0.0 LegendMM LegendMM   101.23     LegendNANA
10:00 14.4 12.6 89 0.0 LegendMM LegendMM   101.29     LegendNANA
11:00 14.7 12.8 88 0.0 LegendMM LegendMM   101.32     LegendNANA
12:00 14.5 12.7 89 0.4 LegendMM LegendMM   101.34     LegendNANA
13:00 14.4 12.5 88 1.0 LegendMM LegendMM   101.29     LegendNANA
14:00 14.4 12.2 87 0.0 LegendMM LegendMM   101.31     LegendNANA
15:00 14.6 12.1 85 0.3 LegendMM LegendMM   101.30     LegendNANA
16:00 14.8 12.2 84 0.0 LegendMM LegendMM   101.29     LegendNANA
17:00 14.7 12.7 88 0.3 LegendMM LegendMM   101.30     LegendNANA
18:00 14.7 12.5 87 1.8 LegendMM LegendMM   101.34     LegendNANA
19:00 15.1 12.2 83 0.4 LegendMM LegendMM   101.34     LegendNANA
20:00 16.2 11.7 74 0.0 LegendMM LegendMM   101.35     LegendNANA
21:00 17.3 11.7 70 0.0 LegendMM LegendMM   101.37     LegendNANA
22:00 17.2 11.7 70 0.0 LegendMM LegendMM   101.41     LegendNANA
23:00 17.0 11.8 72 0.0 LegendMM LegendMM   101.41     LegendNANA

Notes on Data Quality.

Legend

  • E = Estimated
  • M = Missing
  • NA = Not Available*
  • [empty] = Indicates an unobserved value
Date modified: